Home   Weather   Inukjuak   Past weeks
Flag for Canada

Past Weather in Inukjuak, Quebec, Canada — Yesterday and Last 2 Weeks

Now
36 °F

Overcast.


Feels Like: 29 °F
Forecast: 38 / 33 °F
Wind: 9 mph from North

Location: Inukjuak Airport

Current Time: Oct 17, 2019 at 5:35:16 am

Latest Report: Oct 17, 2019 at 5:00 am


Visibility: 9 mi

Pressure: 29.83 "Hg

Humidity: 93%

Dew Point: 34 °F

Location of InukjuakLocation

Past Weather in Inukjuak — Graph

°F

Inukjuak Temperature Yesterday

Maximum temperature yesterday: 41 °F (at 12:11 pm)
Minimum temperature yesterday: 37 °F (at 4:28 am)
Average temperature yesterday: 39 °F

High & Low Weather Summary for the Past Weeks

 TemperatureHumidityPressure
High46 °F (Oct 9, 12:00 pm)100% (Oct 4, 5:00 am)30.33 "Hg (Oct 4, 5:00 am)
Low32 °F (Oct 4, 5:00 am)60% (Oct 2, 10:00 pm)28.98 "Hg (Oct 7, 3:33 am)
Average40 °F89%29.83 "Hg
* Reported Oct 2 4:01 am — Oct 17 4:14 am, Inukjuak. Weather by CustomWeather, © 2019

Note: Actual official high and low records may vary slightly from our data, if they occured in-between our weather recording intervals... More about our weather records

Advertising

Inukjuak Weather History for the Previous 24 Hours

Scroll right to see more
 ConditionsComfort  
Time TempWeatherWind HumidityBarometerVisibility
4:14 am
Thu, Oct 17
37 °FMostly cloudy.13 mph93%29.82 "Hg9 mi
3:50 am37 °FOvercast.10 mph93%29.82 "Hg9 mi
3:37 am37 °FMostly cloudy.8 mph93%29.82 "Hg9 mi
3:00 am37 °FMostly cloudy.8 mph93%29.81 "Hg9 mi
2:29 am37 °FLow clouds.9 mph93%29.80 "Hg9 mi
2:25 am37 °FLight rain. Mostly cloudy.9 mph93%29.80 "Hg9 mi
2:11 am37 °FLight rain. Fog.9 mph93%29.80 "Hg4 mi
2:01 am37 °FFog.6 mph93%29.80 "Hg5 mi
1:37 am37 °FFog.7 mph93%29.79 "Hg5 mi
1:00 am37 °FOvercast.6 mph93%29.78 "Hg9 mi
12:00 am37 °FMostly cloudy.5 mph93%29.77 "Hg9 mi
11:30 pm
Wed, Oct 16
37 °FOvercast.8 mph93%29.77 "Hg9 mi
11:07 pm37 °FOvercast.8 mph93%29.77 "Hg9 mi
10:11 pm37 °FMostly cloudy.6 mph93%29.77 "Hg9 mi
10:00 pm37 °FMostly cloudy.8 mph93%29.78 "Hg9 mi
9:55 pm37 °FMostly cloudy.3 mph93%29.78 "Hg9 mi
9:00 pm37 °FMostly cloudy.7 mph93%29.77 "Hg9 mi
8:00 pm37 °FOvercast.9 mph93%29.77 "Hg9 mi
7:36 pm37 °FFog.9 mph100%29.78 "Hg6 mi
7:22 pm37 °FFog.9 mph100%29.78 "Hg4 mi
7:17 pm39 °FFog.10 mph93%29.78 "Hg3 mi
7:07 pm39 °FFog.8 mph93%29.77 "Hg1 mi
6:26 pm39 °FFog.9 mph93%29.77 "Hg3 mi
6:23 pm39 °FFog.8 mph93%29.77 "Hg2 mi
6:03 pm39 °FCloudy.8 mph93%29.77 "Hg9 mi
5:27 pm39 °FFog.12 mph93%29.76 "Hg5 mi
5:17 pm39 °FCloudy.9 mph93%29.76 "Hg9 mi
4:58 pm39 °FMostly cloudy.12 mph93%29.75 "Hg9 mi
4:37 pm39 °FFog.10 mph93%29.75 "Hg5 mi
4:10 pm39 °FFog.10 mph93%29.75 "Hg3 mi
3:43 pm39 °FFog.10 mph93%29.75 "Hg3 mi
3:39 pm39 °FFog.9 mph93%29.74 "Hg5 mi
3:15 pm39 °FLight rain. Mostly cloudy.10 mph93%29.74 "Hg9 mi
3:08 pm39 °FMostly cloudy.12 mph93%29.74 "Hg9 mi
2:45 pm41 °FLight rain. Mostly cloudy.7 mph87%29.74 "Hg9 mi
2:18 pm39 °FLight rain. Overcast.12 mph93%29.73 "Hg9 mi
2:14 pm39 °FMostly cloudy.10 mph93%29.73 "Hg9 mi
1:20 pm41 °FMostly cloudy.12 mph87%29.72 "Hg9 mi
1:00 pm41 °FMostly cloudy.13 mph87%29.72 "Hg9 mi
12:11 pm41 °FCloudy.8 mph87%29.72 "Hg9 mi
11:57 am39 °FCloudy.9 mph93%29.72 "Hg9 mi
11:32 am39 °FMostly cloudy.9 mph93%29.71 "Hg7 mi
11:19 am39 °FFog.12 mph93%29.71 "Hg5 mi
11:00 am39 °FMostly cloudy.8 mph93%29.71 "Hg9 mi
10:39 am39 °FFog.8 mph93%29.71 "Hg3 mi
10:23 am39 °FFog.7 mph93%29.71 "Hg2 mi
9:53 am39 °FCloudy.7 mph93%29.71 "Hg9 mi
9:39 am37 °FFog.7 mph100%29.71 "Hg5 mi
9:00 am37 °FMostly cloudy.9 mph100%29.71 "Hg8 mi
8:31 am37 °FFog.8 mph100%29.71 "Hg5 mi
8:00 am37 °FMostly cloudy.8 mph93%29.71 "Hg9 mi
7:56 am37 °FMostly cloudy.9 mph93%29.71 "Hg9 mi
7:28 am37 °FMostly cloudy.9 mph93%29.71 "Hg9 mi
7:07 am37 °FMostly cloudy.8 mph100%29.70 "Hg9 mi
6:42 am37 °FFog.9 mph100%29.70 "Hg3 mi
6:13 am37 °FLow clouds.10 mph100%29.70 "Hg9 mi
5:33 am39 °FFog.9 mph93%29.70 "Hg4 mi
5:23 am39 °FFog.9 mph93%29.70 "Hg3 mi
5:00 am37 °FFog.5 mph100%29.70 "Hg1 mi
Weather by CustomWeather, © 2019

See weather overview